Location: Unspecified
(49.2170°N, 0.0000°E)
Time: 17:44:16
(UTC+00:00)

Transit 2A - Pass Details

Date: 20 June 2019
Orbit: 597 x 962 km, 66.7° (Epoch: 22 August)

Event Time Altitude Azimuth Distance (km) Brightness Sun altitude
Rises 08:32:48 0° 324° (NW) 3,520 9.1 42.0°
Reaches altitude 10° 08:35:29 10° 329° (NNW) 2,527 8.5 42.4°
Maximum altitude 08:41:12 54° 47° (NE) 982 7.6 43.3°
Drops below altitude 10° 08:46:19 10° 124° (SE) 2,271 9.4 44.1°
Sets 08:48:37 0° 130° (SE) 3,134 9.8 44.5°
